Location: Avenches
(46.8809°N, 7.0410°E)
Time: 19:06:34
(UTC+00:00)

Cosmos 2237 Rocket - Pass Details

Date: 30 March 2020
Orbit: 833 x 851 km, 71.0° (Epoch: 02 June)

Event Time Altitude Azimuth Distance (km) Brightness Sun altitude
Rises 18:58:00 0° 223° (SW) 3,369 5.7 -10.7°
Reaches altitude 10° 19:00:30 10° 229° (SW) 2,439 5.0 -11.1°
Maximum altitude 19:05:54 48° 304° (WNW) 1,082 3.3 -12.0°
Drops below altitude 10° 19:11:21 10° 18° (NNE) 2,460 4.7 -12.8°
Sets 19:13:55 0° 24° (NNE) 3,401 5.3 -13.2°
